Location: Charant-Kari
(42.0642°N, 44.5397°E)
Time: 00:46:59
(UTC+00:00)

Daily predictions for brighter satellites

Satellite Brightness Start Highest point End
(mag) Time Altitude Azimuth Time Altitude Azimuth Time Altitude Azimuth
Cosmos 1980 Rocket 3.8 00:50:37 31° E 00:50:37 31° E 00:54:06 10° SE
CZ-3 Stage 3 4.4 01:27:11 38° SW 01:31:36 52° S 02:05:50 10° ESE
Nadezhda 4 Rocket 4.4 01:38:30 10° S 01:44:42 61° E 01:50:53 10° NNE
USA 59 Rocket 0.9 01:49:03 41° NE 01:49:04 41° NE 01:53:35 10° ESE
CZ-3 R/B 4.1 01:45:42 28° WSW 01:52:13 34° SW 02:00:27 10° SSE
SL-4 R/B 4.4 01:55:48 10° NE 01:55:48 10° NE 01:55:51 10° NE
SL-24 R/B - RUBIN 2 4.0 01:57:44 49° S 01:57:44 49° S 02:01:03 10° SSE
COSMOS 2406 3.7 01:51:25 10° S 01:56:57 58° ESE 02:02:30 10° NNE
CZ-4 R/B 4.3 01:54:51 10° NNE 01:59:25 57° E 02:03:57 10° S
Cosmos 841 Rocket 3.6 01:55:27 10° SSW 02:00:39 74° ESE 02:05:54 10° NNE
Cosmos 2082 Rocket 2.1 02:07:34 51° WSW 02:08:40 61° WNW 02:14:15 10° NNE
SL-16 R/B 3.5 02:04:56 12° N 02:09:43 37° ENE 02:14:55 10° SE
Cosmos 1892 Rocket 4.3 02:09:42 10° S 02:13:55 53° E 02:18:12 10° NNE
NOSS 2-1 (C) 3.8 02:13:07 47° N 02:13:56 59° NE 02:18:42 10° SE
Cosmos 1933 3.0 02:17:03 76° SW 02:17:03 76° SW 02:20:40 10° S
COSMOS 2455 2.7 02:14:59 31° NNW 02:18:05 86° WSW 02:24:06 10° SSE
IRS-1D 3.3 02:19:00 10° N 02:23:59 72° WNW 02:29:02 10° SSW
FengYun 1-2 T 4.3 02:19:25 10° N 02:24:54 52° WNW 02:30:21 10° SW
Cosmos 1898 Rocket 3.4 02:22:13 28° NNW 02:25:03 77° WSW 02:30:18 10° SSE
Cosmos 1980 Rocket 2.8 02:32:25 32° W 02:32:48 32° WSW 02:37:40 10° SSW
Cosmos 2369 3.8 02:34:18 26° NW 02:37:19 54° WSW 02:42:48 10° S
Cosmos 2098 Rocket 4.5 02:38:52 29° W 02:39:14 29° W 02:44:07 10° SW
SWAS 4.2 02:39:55 29° NNW 02:41:53 77° WSW 02:45:53 10° SSE
COSMO-SKYMED 1 2.3 02:38:48 10° S 02:42:54 73° WSW 02:46:30 13° NNW
Cosmos-2242 3.8 02:38:53 10° N 02:43:02 52° E 02:47:07 10° SSE
SKYMED 2 3.8 02:40:07 10° S 02:44:18 47° W 02:46:49 22° NW
BREEZE-M DEB (TANK) 2.7 02:43:59 34° NW 02:45:05 52° NNE 02:51:03 10° E
Cosmos 2058 Rocket 3.4 02:44:09 10° N 02:48:35 68° E 02:52:57 10° SSE
NOAA 12 4.2 02:44:29 10° N 02:49:34 48° WNW 02:54:35 10° SW
Cosmos 1937 Rocket 3.4 02:45:48 16° NNW 02:49:51 63° WSW 02:54:53 10° S
Cosmos 858 Rocket 4.4 02:44:45 11° NNW 02:49:51 89° WSW 02:55:02 10° SSE
Cosmos 220 Rocket 4.4 02:51:55 16° WSW 02:54:36 33° WNW 02:58:20 10° N
Cosmos 1484 Rocket 2.3 02:52:02 10° NNE 02:55:28 88° W 02:58:50 10° SSW
Tiangong -1.1 02:55:01 25° WSW 02:56:14 35° SSW 02:59:13 10° SE
NOSS 3-1 (A) 4.5 02:50:23 10° NNW 02:57:33 63° NE 03:06:25 10° SE
Cosmos 2333 Rocket 2.6 02:52:43 10° NNW 02:58:30 66° ENE 03:04:11 10° SE
Okean 1 3.3 02:56:36 10° N 03:00:09 67° E 03:03:41 10° SSE
Cosmos 2026 Rocket 3.9 02:55:10 10° SSW 03:01:08 62° W 03:07:10 10° N
Cosmos 2360 Rocket 3.0 03:00:01 10° NNW 03:05:31 51° ENE 03:10:57 10° SE
SMAP 3.9 03:05:08 10° NNE 03:09:43 55° E 03:14:16 10° S
DMSP B5D1-3 4.5 03:06:08 10° S 03:11:14 76° WSW 03:16:22 10° NNW
Cosmos 1814 Rocket 4.2 03:06:22 10° SSW 03:11:33 77° ESE 03:16:50 10° NNE
IRIDIUM 103 4.5 03:08:27 10° S 03:13:39 80° E 03:18:54 10° N
CBERS-1 4.0 03:09:47 10° NNE 03:14:53 83° WNW 03:19:58 10° SSW
Helios 1A Rocket 3.6 03:17:23 10° SSW 03:20:06 23° W 03:22:13 13° NW
Cosmos 2219 Rocket 3.3 03:19:02 10° NNW 03:24:26 43° ENE 03:29:45 10° SE
Cosmos 1758 Rocket 3.6 03:20:02 10° S 03:24:28 85° E 03:28:54 10° N
IGS 5A 3.5 03:20:36 10° N 03:24:28 50° WNW 03:28:20 10° SSW
Cosmos 1092 Rocket 4.2 03:18:54 10° SSW 03:24:55 47° WNW 03:30:56 10° N
Cosmos 1553 Rocket 4.1 03:19:17 10° N 03:25:43 87° W 03:32:08 10° S
Thor Agena Rocket 3.5 03:21:54 10° NNE 03:26:59 88° ESE 03:32:01 10° SSW
Cosmos 2322 Rocket 2.3 03:21:44 10° NNW 03:27:28 85° ENE 03:33:08 10° SSE
Meteor 2-3 Rocket 4.5 03:22:36 10° SW 03:27:35 30° WNW 03:32:34 10° N
Meteor 1-26 Rocket 4.4 03:24:17 10° NNW 03:29:37 52° W 03:35:06 10° SSW
IRIDIUM 106 4.3 03:26:47 10° S 03:31:58 70° W 03:37:12 10° N
SL-4 R/B 3.1 03:29:40 10° NW 03:32:16 22° NNE 03:34:49 10° ENE
Cosmos 1743 2.4 03:30:45 10° S 03:33:59 79° E 03:37:13 10° N
USA 59 Rocket 1.7 03:34:47 10° WNW 03:37:48 20° WSW 03:41:32 10° SSW
COSMOS 2406 4.3 03:37:10 10° WSW 03:41:36 23° NW 03:46:05 10° N
Cosmos 2333 4.4 03:35:57 10° NNW 03:41:44 79° ENE 03:47:24 10° SSE
Cosmos 1733 2.4 03:40:56 10° SW 03:42:34 25° WNW 03:44:12 10° NNW
Cosmos 1626 Rocket 3.9 03:44:22 10° SSW 03:48:35 43° WNW 03:52:48 10° N
SJ-12 3.7 03:45:45 10° N 03:49:33 76° WNW 03:53:21 10° SSW
MOS 1 Rocket 3.8 03:44:27 10° NNE 03:49:51 85° ESE 03:55:08 10° SSW
Cosmos 2221 2.5 03:46:58 10° N 03:51:07 86° E 03:55:15 10° S
